Mobile Site You Are Here > Home > Minor Leagues > Players > Hunter Dozier 2013 Minor League Gamelogs & Splits


Hunter Dozier

Hunter William Dozier

Positions: Third Baseman and Shortstop
Bats: Right, Throws: Right
Height: 6' 4", Weight: 220 lb.

Born: August 22, 1991 in Denton, Texas, US
School: Stephen F Austin State University (Nacogdoches, TX)

Drafted by the Kansas City Royals in the 1st round (8th) of the 2013 MLB June Amateur Draft from Stephen F Austin State University (Nacogdoches, TX).

Prospect Ratings by BaseballProspectus.com:
Pre-2014: Rated #96 Prospect
Hunter Dozier
/ Gamelogs & Splits
 Batting: 2014 / 2013

2013 Player Batting Gamelog

Rk Date Lev Tm   Opp PA AB R H 2B 3B HR RBI BB IBB SO HBP SH SF GDP SB CS Pos E
1 2013-06-20 Rk-PION Idaho Falls Chukars Orem Owlz 4 4 1 1 0 0 0 0 0 0 0 0 0 0 0 0 0 3B 0
2 2013-06-21 Rk-PION Idaho Falls Chukars Orem Owlz 6 3 1 0 0 0 0 0 3 0 0 0 0 0 0 0 0 3B 1
3 2013-06-22 Rk-PION Idaho Falls Chukars @ Ogden Raptors 4 4 1 1 1 0 0 1 0 0 0 0 0 0 0 0 0 3B 0
4 2013-06-23 Rk-PION Idaho Falls Chukars @ Ogden Raptors 4 4 0 1 0 0 0 1 0 0 1 0 0 0 0 0 0 SS 0
5 2013-06-25 Rk-PION Idaho Falls Chukars @ Ogden Raptors 4 3 1 0 0 0 0 0 1 0 1 0 0 0 0 0 0 SS 0
6 2013-06-25 (2) Rk-PION Idaho Falls Chukars @ Ogden Raptors 4 4 0 1 0 0 0 0 0 0 3 0 0 0 0 0 0 3B 0
7 2013-06-26 Rk-PION Idaho Falls Chukars @ Orem Owlz 5 3 1 0 0 0 0 1 2 0 0 0 0 0 0 1 0 3B 0
8 2013-06-27 Rk-PION Idaho Falls Chukars @ Orem Owlz 5 5 0 3 2 0 0 2 0 0 0 0 0 0 0 0 0 3B 0
9 2013-06-28 Rk-PION Idaho Falls Chukars Ogden Raptors 4 3 1 0 0 0 0 0 1 0 0 0 0 0 0 0 0 3B 0
10 2013-06-29 Rk-PION Idaho Falls Chukars Ogden Raptors 5 4 1 1 0 0 0 1 1 0 0 0 0 0 0 0 0 SS 0
11 2013-06-30 Rk-PION Idaho Falls Chukars Ogden Raptors 5 4 0 2 0 0 0 1 0 0 0 0 0 1 0 0 0 SS 0
12 2013-07-01 Rk-PION Idaho Falls Chukars Ogden Raptors 4 4 0 1 1 0 0 0 0 0 0 0 0 0 0 0 0 0
13 2013-07-02 Rk-PION Idaho Falls Chukars @ Orem Owlz 5 5 2 2 1 0 0 1 0 0 1 0 0 0 0 0 0 0
14 2013-07-03 Rk-PION Idaho Falls Chukars @ Orem Owlz 5 5 3 3 1 0 1 2 0 0 1 0 0 0 0 0 0 3B 0
15 2013-07-04 Rk-PION Idaho Falls Chukars Grand Junction Rockies 4 4 0 1 0 0 0 0 0 0 1 0 0 0 1 0 0 3B 0
16 2013-07-05 Rk-PION Idaho Falls Chukars Grand Junction Rockies 5 4 0 2 1 0 0 1 1 0 0 0 0 0 0 0 0 3B 1
17 2013-07-06 Rk-PION Idaho Falls Chukars Grand Junction Rockies 4 4 0 1 0 0 0 0 0 0 0 0 0 0 0 0 0 0
18 2013-07-07 Rk-PION Idaho Falls Chukars Grand Junction Rockies 4 4 1 2 0 0 0 1 0 0 0 0 0 0 0 1 0 SS 0
19 2013-07-09 Rk-PION Idaho Falls Chukars @ Helena Brewers 5 5 0 2 2 0 0 1 0 0 0 0 0 0 0 0 0 3B 0
20 2013-07-10 Rk-PION Idaho Falls Chukars @ Helena Brewers 5 5 1 1 1 0 0 0 0 0 1 0 0 0 0 0 0 3B 2
21 2013-07-11 Rk-PION Idaho Falls Chukars @ Helena Brewers 6 4 0 0 0 0 0 0 2 0 1 0 0 0 0 0 0 3B 0
22 2013-07-12 Rk-PION Idaho Falls Chukars @ Helena Brewers 5 5 0 0 0 0 0 0 0 0 1 0 0 0 0 0 0 3B 0
23 2013-07-13 Rk-PION Idaho Falls Chukars @ Missoula Osprey 5 4 1 1 0 0 1 1 1 0 2 0 0 0 0 0 0 0
24 2013-07-14 Rk-PION Idaho Falls Chukars @ Missoula Osprey 4 2 3 2 1 0 0 0 1 0 0 1 0 0 0 0 0 3B 0
25 2013-07-15 Rk-PION Idaho Falls Chukars @ Missoula Osprey 5 2 0 0 0 0 0 0 3 0 0 0 0 0 0 0 0 3B 0
26 2013-07-17 Rk-PION Idaho Falls Chukars Helena Brewers 5 4 1 1 0 0 0 0 1 0 0 0 0 0 1 0 0 3B 0
27 2013-07-18 Rk-PION Idaho Falls Chukars Helena Brewers 6 6 0 1 1 0 0 1 0 0 2 0 0 0 0 0 0 3B 0
28 2013-07-19 Rk-PION Idaho Falls Chukars Helena Brewers 5 5 0 1 1 0 0 1 0 0 1 0 0 0 0 0 0 3B 1
29 2013-07-20 Rk-PION Idaho Falls Chukars Missoula Osprey 5 5 0 1 0 0 0 2 0 0 0 0 0 0 0 0 0 SS 0
30 2013-07-21 Rk-PION Idaho Falls Chukars Missoula Osprey 5 4 2 2 1 0 1 3 1 0 0 0 0 0 0 0 0 SS 1
31 2013-07-22 Rk-PION Idaho Falls Chukars Missoula Osprey 5 4 1 1 1 0 0 1 1 0 0 0 0 0 0 0 0 3B 1
32 2013-07-23 Rk-PION Idaho Falls Chukars Missoula Osprey 5 5 1 2 2 0 0 1 0 0 0 0 0 0 0 0 0 3B 0
33 2013-07-25 Rk-PION Idaho Falls Chukars @ Grand Junction Rockies 5 4 1 2 0 0 0 0 1 0 0 0 0 0 0 0 0 3B 1
34 2013-07-26 Rk-PION Idaho Falls Chukars @ Grand Junction Rockies 4 4 1 1 0 0 1 2 0 0 0 0 0 0 0 0 0 3B 0
35 2013-07-27 Rk-PION Idaho Falls Chukars @ Grand Junction Rockies 5 5 0 2 0 0 0 2 0 0 2 0 0 0 0 0 0 3B 0
36 2013-07-28 Rk-PION Idaho Falls Chukars @ Grand Junction Rockies 4 4 0 0 0 0 0 0 0 0 0 0 0 0 0 0 0 3B 0
37 2013-07-31 Rk-PION Idaho Falls Chukars Orem Owlz 4 4 0 0 0 0 0 0 0 0 3 0 0 0 0 0 0 3B 0
38 2013-08-01 Rk-PION Idaho Falls Chukars Orem Owlz 5 5 1 4 2 0 0 2 0 0 0 0 0 0 0 0 0 3B 0
39 2013-08-02 Rk-PION Idaho Falls Chukars @ Ogden Raptors 5 4 1 0 0 0 0 0 1 0 0 0 0 0 0 0 0 3B 0
40 2013-08-03 Rk-PION Idaho Falls Chukars @ Ogden Raptors 5 2 3 1 0 0 1 1 3 0 1 0 0 0 0 1 0 3B 0
41 2013-08-04 Rk-PION Idaho Falls Chukars Ogden Raptors 5 3 1 0 0 0 0 0 1 0 1 1 0 0 0 0 0 SS 0
42 2013-08-05 Rk-PION Idaho Falls Chukars Ogden Raptors 5 5 2 3 0 0 1 2 0 0 1 0 0 0 0 0 0 SS 0
43 2013-08-06 Rk-PION Idaho Falls Chukars Ogden Raptors 5 4 0 0 0 0 0 0 1 0 1 0 0 0 0 0 0 0
44 2013-08-08 Rk-PION Idaho Falls Chukars @ Grand Junction Rockies 4 3 0 2 1 0 0 1 0 0 0 0 0 1 0 0 0 3B 1
45 2013-08-09 Rk-PION Idaho Falls Chukars @ Grand Junction Rockies 5 2 1 0 0 0 0 0 3 0 1 0 0 0 0 0 0 3B 0
46 2013-08-10 Rk-PION Idaho Falls Chukars @ Grand Junction Rockies 6 6 0 2 1 0 0 0 0 0 2 0 0 0 0 0 0 3B 0
47 2013-08-11 Rk-PION Idaho Falls Chukars @ Grand Junction Rockies 5 2 1 1 1 0 0 2 2 0 0 1 0 0 0 0 0 3B 0
Player Moved from Rk-PION to A-SALL
48 2013-08-15 A-SALL Lexington Legends @ Charleston RiverDogs 3 3 0 2 1 0 0 0 0 0 0 0 0 0 0 0 0 3B 0
49 2013-08-15 (2) A-SALL Lexington Legends @ Charleston RiverDogs 3 3 0 0 0 0 0 1 0 0 1 0 0 0 0 0 0 0
50 2013-08-16 A-SALL Lexington Legends @ Greenville Drive 4 4 0 0 0 0 0 0 0 0 1 0 0 0 1 0 0 3B 0
51 2013-08-18 A-SALL Lexington Legends @ Greenville Drive 4 4 0 1 0 0 0 1 0 0 0 0 0 0 0 0 0 3B 0
52 2013-08-18 (2) A-SALL Lexington Legends @ Greenville Drive 3 2 0 0 0 0 0 0 1 0 0 0 0 0 0 0 0 3B 0
53 2013-08-19 A-SALL Lexington Legends @ Greenville Drive 4 4 2 3 2 0 0 2 0 0 0 0 0 0 0 0 0 3B 0
54 2013-08-20 A-SALL Lexington Legends Augusta GreenJackets 4 4 1 2 1 0 0 1 0 0 0 0 0 0 0 0 0 3B 0
55 2013-08-21 A-SALL Lexington Legends Augusta GreenJackets 4 4 0 1 0 0 0 1 0 0 2 0 0 0 0 0 0 3B 0
56 2013-08-22 A-SALL Lexington Legends Augusta GreenJackets 6 5 0 0 0 0 0 1 1 0 0 0 0 0 0 0 0 3B 0
57 2013-08-23 A-SALL Lexington Legends Greenville Drive 4 4 1 4 1 0 0 1 0 0 0 0 0 0 0 0 0 3B 0
58 2013-08-24 A-SALL Lexington Legends Greenville Drive 2 1 0 0 0 0 0 0 0 0 0 1 0 0 0 0 0 3B 0
59 2013-08-27 A-SALL Lexington Legends @ Augusta GreenJackets 4 3 0 0 0 0 0 0 1 0 0 0 0 0 0 0 0 3B 0
60 2013-08-28 A-SALL Lexington Legends @ Augusta GreenJackets 4 4 0 0 0 0 0 0 0 0 1 0 0 0 0 0 0 3B 1
61 2013-08-29 A-SALL Lexington Legends @ Augusta GreenJackets 5 5 2 3 1 0 0 0 0 0 0 0 0 0 0 0 0 0
62 2013-08-30 A-SALL Lexington Legends West Virginia Power 5 5 0 2 0 0 0 1 0 0 0 0 0 0 0 0 0 3B 0
Player Moved from A-SALL to Rk-PION
63 2013-08-31 Rk-PION Idaho Falls Chukars Grand Junction Rockies 5 5 3 4 1 0 0 3 0 0 0 0 0 0 0 0 0 0
64 2013-09-01 Rk-PION Idaho Falls Chukars @ Orem Owlz 5 4 1 1 0 0 0 0 1 0 1 0 0 0 0 0 0 3B 0
65 2013-09-02 Rk-PION Idaho Falls Chukars @ Orem Owlz 5 5 0 1 0 0 0 1 0 0 0 0 0 0 0 0 1 3B 0
66 2013-09-03 Rk-PION Idaho Falls Chukars @ Orem Owlz 5 4 1 0 0 0 0 0 1 0 2 0 0 0 0 0 0 0
67 2013-09-04 Rk-PION Idaho Falls Chukars @ Orem Owlz 6 4 2 2 1 0 1 3 2 0 0 0 0 0 0 0 0 0
68 2013-09-06 Rk-PION Idaho Falls Chukars @ Ogden Raptors 4 4 0 2 0 0 0 0 0 0 0 0 0 0 0 0 0 3B 1
69 2013-09-07 Rk-PION Idaho Falls Chukars Orem Owlz 4 4 1 1 0 0 0 1 0 0 1 0 0 0 0 0 0 3B 0

2013 Player Batting Splits

Split G PA AB R H 2B 3B HR RBI SB CS BB SO BA OBP SLG OPS TB GDP HBP SH SF IBB
Total 69 317 273 49 84 30 0 7 52 3 1 38 37 .308 .397 .495 .892 135 3 4 0 2 0
Home 30 139 124 20 41 13 0 2 26 1 0 12 13 .331 .396 .484 .880 60 2 2 0 1 0
Away 39 178 149 29 43 17 0 5 26 2 1 26 24 .289 .399 .503 .902 75 1 2 0 1 0
vs RHP as RHB 68 269 231 71 26 0 6 43 33 31 .307 .398 .498 .896 115 2 3 0 2 0
vs LHP as RHB 25 48 42 13 4 0 1 9 5 6 .310 .396 .476 .872 20 1 1 0 0 0
June 11 50 41 7 10 3 0 0 7 1 0 8 5 .244 .360 .317 .677 13 0 0 0 1 0
July 26 124 111 18 32 14 0 4 20 1 0 12 16 .288 .363 .523 .885 58 2 1 0 0 0
August 26 114 96 19 35 12 0 2 20 1 0 14 12 .365 .456 .552 1.008 53 1 3 0 1 0
September 6 29 25 5 7 1 0 1 5 0 1 4 4 .280 .379 .440 .819 11 0 0 0 0 0
2 outs, RISP 45 64 54 26 9 0 2 23 9 2 .481 .563 .759 1.322 41 0 1 0 0 0
vs. Younger Pitchers 63 190 165 53 17 0 2 31 23 24 .321 .405 .461 .866 76 3 1 0 1 0
vs. Older Pitchers 59 127 108 31 13 0 5 21 15 13 .287 .386 .546 .932 59 0 3 0 1 0
Please note that splits include both major and minor league stats. We have decided that the splits across all levels is more useful than just minor league stats.

About the Minor League Data

Performance data on minor and international leagues is licensed from and provided by the SABR Minor Leagues Database, a community project sponsored by the Minor Leagues Committee of the Society for American Baseball Research.

The database is under active development. Many statistics are incomplete due to ongoing research and/or limitations in published sources. To learn more about these limitations, or to find out how to contribute, click here.

Minor league Total Zone (Rctch&Rtz, 2005-2009) data provided by Baseballprojection.com and Minorleaguesplits.com.